Tracking 19476 objects as of 18-Jan-2019
HD Live streaming from Space Station
objects crossing your sky now

COSMOS 2368

Track COSMOS 2368 now!
COSMOS 2368 is classified as:


NORAD ID: 26042
Int'l Code: 1999-073A
Perigee: 3,515.7 km
Apogee: 36,856.6 km
Inclination: 67.0 °
Period: 717.8 minutes
Semi major axis: 26557 km
RCS: 7.9432 m2 (large)
Launch date: December 27, 1999
Source: Commonwealth of Independent States (former USSR) (CIS)
Launch site: PLESETSK MISSILE AND SPACE COMPLEX (PKMTR)
aabbcc
Your satellite tracking list
Your tracking list is empty




NASA's NSSDC Master Catalog

Two Line Element Set (TLE):
1 26042U 99073A   19016.61189102 +.00000544 +00000-0 +00000-0 0  9990
2 26042 066.9557 135.5135 6277210 215.7702 078.7492 02.00599886139597
Source of the keplerian elements: AFSPC